Location: Bogis-Bossey
(46.3500°N, 6.1667°E)
Time: 18:07:00
(UTC+00:00)

ALOS 2 - Pass Details

Date: 17 August 2022
Orbit: 630 x 632 km, 97.9° (Epoch: 01 October)

Event Time Altitude Azimuth Distance (km) Brightness Sun altitude
Exits shadow 23:02:52 41° 347° (NNW) 919 3.8 -29.9°
Drops below altitude 10° 23:05:46 10° 347° (NNW) 2,025 6.1 -30.0°
Sets 23:07:59 0° 347° (NNW) 2,938 7.2 -30.1°
